Meteo Giornale » Osservazioni meteo Pakistan » Multan
ore: 22:30 - Osservazioni Meteo Multan
Lat. 30° 12' N Lon. 71° 26' E Alt. 122 metri s.l.m.
32 °C
Caligine
Temp. 24 Ore
28 °C
36 °C
Sud
7.4 Km/h
Dew point 24 °C
Umidità 62 %
Visibilità 4 Km
Il sole sorge alle ore 05:50
Il sole tramonta alle ore 18:38
| Data e Ora | Cielo e Fenomeni | T °C | DP °C | Um. % | Pres. hPa | Vis. km | Vento km/h | |
|---|---|---|---|---|---|---|---|---|
| Oggi h: 22:30 | Caligine | 32 | 24 | 62 | 999 | 4 | S 7.4 | |
| Oggi h: 22:00 | Caligine | 32 | 24 | 62 | 999 | 4 | S 7.4 | |
| Oggi h: 21:30 | Caligine | 33 | 24 | 59 | 999 | 4 | S 7.4 | |
| Oggi h: 21:00 | Caligine | 33 | 24 | 59 | 999 | 4 | S 7.4 | |
| Oggi h: 20:30 | Caligine | 33 | 24 | 59 | 999 | 4 | N 0 | |
| Oggi h: 20:00 | Caligine | 33 | 24 | 59 | 999 | 4 | N 0 | |
| Oggi h: 19:30 | Caligine | 33 | 24 | 59 | 998 | 4 | N 0 | |
| Oggi h: 19:00 | Caligine | 34 | 24 | 56 | 998 | 4 | SO 14.8 | |
| Oggi h: 18:30 | Caligine | 34 | 25 | 59 | 998 | 4 | S 11.1 | |
| Oggi h: 18:00 | Caligine | 34 | 25 | 59 | 998 | 4 | SO 11.1 | |
| Oggi h: 17:30 | Caligine | 35 | 25 | 56 | 998 | 4 | S 14.8 | |
| Oggi h: 17:00 | Caligine | 35 | 25 | 56 | 998 | 4 | SO 11.1 | |
| Oggi h: 16:30 | Caligine | 36 | 24 | 50 | 998 | 4 | SO 18.5 | |
| Oggi h: 16:00 | Caligine | 36 | 24 | 50 | 998 | 4 | S 14.8 | |
| Oggi h: 15:30 | Caligine | 36 | 24 | 50 | 999 | 4 | S 14.8 | |
| Oggi h: 15:00 | Caligine | 36 | 24 | 50 | 999 | 4 | S 14.8 | |
| Oggi h: 14:30 | Caligine | 36 | 24 | 50 | 1000 | 4 | S 14.8 | |
| Oggi h: 14:00 | Caligine | 36 | 24 | 50 | 1000 | 4 | S 14.8 | |
| Oggi h: 13:30 | Caligine | 35 | 24 | 53 | 1001 | 4 | S 14.8 | |
| Oggi h: 13:00 | Caligine | 35 | 24 | 53 | 1001 | 4 | SO 11.1 | |
| Oggi h: 12:30 | Caligine | 34 | 24 | 56 | 1001 | 4 | SO 14.8 | |
| Oggi h: 12:00 | Caligine | 33 | 24 | 59 | 1002 | 4 | SO 14.8 | |
| Oggi h: 11:30 | Caligine | 32 | 23 | 59 | 1002 | 4 | S 14.8 | |
| Oggi h: 11:00 | Caligine | 32 | 24 | 62 | 1002 | 4 | S 14.8 | |
| Oggi h: 10:30 | Caligine | 31 | 23 | 62 | 1002 | 4 | S 18.5 | |
| Oggi h: 10:00 | Caligine | 31 | 23 | 62 | 1002 | 4 | SO 18.5 | |
| Oggi h: 09:30 | Caligine | 30 | 23 | 66 | 1002 | 4 | SO 22.2 | |
| Oggi h: 09:00 | Caligine | 29 | 23 | 70 | 1001 | 4 | SO 22.2 | |
| Oggi h: 08:30 | Caligine | 28 | 23 | 74 | 1001 | 4 | SO 22.2 | |
| Oggi h: 08:00 | Caligine | 28 | 23 | 74 | 1001 | 4 | S 18.5 | |
| Oggi h: 07:30 | Caligine | 28 | 23 | 74 | 1001 | 4 | S 14.8 | |
| Oggi h: 07:00 | Caligine | 28 | 23 | 74 | 1001 | 4 | S 14.8 | |
| Oggi h: 06:30 | Caligine | 28 | 23 | 74 | 1001 | 4 | S 14.8 | |
| Oggi h: 06:00 | Caligine | 28 | 23 | 74 | 1000 | 4 | S 14.8 | |
| Oggi h: 05:30 | Caligine | 29 | 24 | 74 | 999 | 4 | S 14.8 | |
| Oggi h: 05:00 | Caligine | 29 | 24 | 74 | 999 | 4 | S 14.8 | |
| Oggi h: 04:30 | Caligine | 29 | 23 | 70 | 999 | 4 | S 14.8 | |
| Oggi h: 04:00 | Caligine | 29 | 23 | 70 | 999 | 4 | S 14.8 | |
| Oggi h: 03:30 | Caligine | 30 | 24 | 70 | 999 | 4 | S 14.8 | |
| Oggi h: 03:00 | Caligine | 30 | 24 | 70 | 999 | 4 | S 18.5 | |
| Oggi h: 02:30 | Caligine | 30 | 24 | 70 | 999 | 4 | S 14.8 | |
| Oggi h: 02:00 | Caligine | 30 | 24 | 70 | 999 | 4 | S 14.8 | |
| Oggi h: 01:30 | Caligine | 31 | 25 | 70 | 999 | 4 | S 14.8 | |
| Oggi h: 01:00 | Caligine | 31 | 25 | 70 | 999 | 4 | S 14.8 | |
| Oggi h: 00:30 | Caligine | 31 | 24 | 66 | 999 | 4 | S 14.8 | |
| Oggi h: 00:00 | Caligine | 31 | 24 | 66 | 999 | 4 | S 14.8 | |



